Retour au catalogue

SL-12 R/B(2)

ActifGEO
NORAD 15141·ROCKET BODY·🇷🇺 Russia

Lancé Jun 30, 1983 depuis Baikonur Cosmodrome

Loading…

TLE

FraisSource: Space-Track

Époque: Sep 14, 2026, 14:21 UTC

1 15141U 83066F   26257.59806778 -.00000118  00000-0  00000+0 0  9997
2 15141   9.5688 312.7645 0009493 200.8938 171.3314  0.97618197118809

Suivez SL-12 R/B(2) en temps réel avec AllMySat

Download on the App Store